Home > Weather > Xiamen > Past weeks

Flag for China Weather for the Past 2 Weeks in Xiamen, Fujian, China

Now
63 °F

Sprinkles. Mostly cloudy.


Feels Like: 63 °F
Forecast: 66 / 76 °F
Wind: 3 mph from Northwest

Location: Xiamen Airport

Current Time: Apr 30, 2016 at 7:42:52 PM

Latest Report: Apr 30, 2016 at 7:00 PM


Visibility: 4 mi

Pressure: 29.98 "Hg

Humidity: 88%

Dew Point: 59 °F

Location of XiamenLocation

Historic Weather in Xiamen — Graph

°F

Xiamen Temperature Yesterday

Maximum temperature yesterday: 79 °F (at 11:00 AM)
Minimum temperature yesterday: 68 °F (at 5:00 AM)
Average temperature yesterday: 73 °F

High & Low Weather Summary for the Past Weeks

 TemperatureHumidityPressure
High88 °F (Apr 21, 1:00 PM)100% (Apr 15, 6:00 PM)30.18 "Hg (Apr 15, 6:00 PM)
Low59 °F (Apr 19, 2:00 AM)45% (Apr 29, 12:00 PM)29.68 "Hg (Apr 27, 3:00 PM)
Average71 °F88%29.90 "Hg
* Reported Apr 15 6:00 PM — Apr 30 6:00 PM, Xiamen, Weather by CustomWeather, © 2016

Note: Actual official high and low records may vary slightly from our data, if they occured in-between our weather recording intervals... More about our weather records

Advertising

Xiamen Weather History for the Previous 24 Hours

Scroll right to see more
 ConditionsComfort  
Time TempWeatherWind HumidityBarometerVisibility
6:00 PM
Sat, Apr 30
61 °FSprinkles. Mostly cloudy.1 mph94%29.95 "Hg4 mi
5:00 PM61 °FSprinkles. Mostly cloudy.1 mph94%29.95 "Hg4 mi
4:00 PM61 °FSprinkles. Fog.3 mph94%29.95 "Hg3 mi
3:00 PM61 °FSprinkles. Fog.3 mph94%29.95 "Hg2 mi
2:00 PM64 °FRain showers. Mostly cloudy.3 mph68%29.95 "Hg3 mi
1:00 PM73 °FPartly sunny.3 mph53%29.95 "Hg4 mi
12:00 PM72 °FPartly sunny.3 mph50%29.95 "Hg5 mi
11:00 AM72 °FPartly sunny.3 mph47%29.98 "Hg5 mi
10:00 AM72 °FPartly sunny.3 mph53%29.98 "Hg4 mi
9:00 AM72 °FSprinkles. Partly sunny.3 mph50%30.01 "Hg5 mi
8:00 AM72 °FScattered clouds.1 mph53%29.98 "Hg5 mi
7:00 AM70 °FClear.1 mph60%29.98 "Hg5 mi
6:00 AM70 °FSunny.1 mph60%29.95 "Hg10 mi
5:00 AM70 °FClear.1 mph60%29.95 "Hg10 mi
4:00 AM70 °FClear.1 mph57%29.95 "Hg10 mi
3:00 AM68 °FClear.3 mph60%29.95 "Hg10 mi
2:00 AM70 °FClear.3 mph53%29.95 "Hg10 mi
1:00 AM70 °FClear.3 mph53%29.95 "Hg10 mi
12:00 AM68 °FPassing clouds.3 mph69%29.98 "Hg5 mi
11:00 PM
Fri, Apr 29
70 °FLight rain. Passing clouds.6 mph60%30.01 "HgN/A
10:00 PM70 °FClear.6 mph60%30.01 "Hg10 mi
9:00 PM72 °FClear.8 mph53%30.01 "Hg10 mi
8:00 PM72 °FClear.13 mph50%30.01 "Hg10 mi
7:00 PM72 °FClear.10 mph50%30.01 "Hg10 mi
Weather by CustomWeather, © 2016

See weather overviewHow to use our weather pages